Weather History for Grand Rapids, MI

Change the Weather History Date:

Wednesday, March 7, 2012

  Actual Average Record
Temperature  
Mean Temperature 59 °F 32 °F  
Max Temperature 64 °F 40 °F 72 °F (2000)
Min Temperature 53 °F 24 °F -3 °F (1986)
Degree Days  
Heating Degree Days 6 33  
Month to date heating degree days 191 236  
Since 1 July heating degree days 4328 5013  
Cooling Degree Days 0 0  
Month to date cooling degree days 0 0  
Year to date cooling degree days 0 0  
Growing Degree Days 8 (Base 50)    
Moisture  
Dew Point 39 °F    
Average Humidity 48    
Maximum Humidity 56    
Minimum Humidity 40    
Precipitation  
Precipitation 0.00 in 0.08 in 1.37 in (1903)
Month to date precipitation 0.58 0.52  
Year to date precipitation 5.78 4.40  
Snow  
Snow 0.00 in 0.40 in 5.20 in (1935)
Month to date snowfall 2.3 2.7  
Since 1 July snowfall 50.7 67.5  
Snow Depth 0.00 in    
Sea Level Pressure  
Sea Level Pressure 29.94 in    
Wind  
Wind Speed 20 mph (SSW)    
Max Wind Speed 31 mph    
Max Gust Speed 44 mph    
Visibility 10 miles    
Events      
T = Trace of Precipitation, MM = Missing Value Source: NWS Daily Summary

Daily Weather History Graph

Daily Weather History Graph

Search for Another Location

Airport:

Trip Planner

Search our weather history database for the weather conditions in past years. The results will help you decide how hot, cold, wet, or windy it might be!

Date:

Astronomy

Mar. 07, 2012 Rise Set
Actual Time 7:07 AM EST 6:39 PM EST
Civil Twilight 6:38 AM EST 7:07 PM EST
Nautical Twilight 6:06 AM EST 7:40 PM EST
Astronomical Twilight 5:33 AM EST 8:13 PM EST
Moon 6:15 PM EST (3/7) 6:17 AM EST (3/7)
Length of Visible Light 12h 28m
Length of Day
11h 32m
Waxing Gibbous, 99% of the Moon is Illuminated
Mar 7
Waxing Gibbous
Mar 8
Full
Mar 14
Last Quarter
Mar 22
New
Mar 30
First Quarter

Hourly Weather History & Observations

Time (EST) Temp. Dew Point Humidity Pressure Visibility Wind Dir Wind Speed Gust Speed Precip Events Conditions
12:53 AM 55.0 °F 36.0 °F 49% 30.01 in 10.0 mi SSW 13.8 mph 21.9 mph N/A   Clear
1:53 AM 55.0 °F 35.1 °F 47% 30.02 in 10.0 mi SSW 16.1 mph - N/A   Clear
2:53 AM 55.0 °F 33.1 °F 43% 30.02 in 10.0 mi SSW 15.0 mph - N/A   Clear
3:53 AM 55.0 °F 32.0 °F 42% 30.01 in 10.0 mi SSW 16.1 mph - N/A   Partly Cloudy
4:53 AM 54.0 °F 30.9 °F 41% 30.01 in 10.0 mi SSW 13.8 mph - N/A   Clear
5:53 AM 54.0 °F 30.0 °F 40% 30.01 in 10.0 mi SSW 16.1 mph 24.2 mph N/A   Mostly Cloudy
6:53 AM 54.0 °F 30.9 °F 41% 30.01 in 10.0 mi SSW 13.8 mph 21.9 mph N/A   Overcast
7:53 AM 53.1 °F 32.0 °F 45% 30.01 in 10.0 mi South 16.1 mph - N/A   Overcast
8:53 AM 55.0 °F 32.0 °F 42% 30.01 in 10.0 mi SSW 20.7 mph 26.5 mph N/A   Overcast
9:53 AM 57.0 °F 34.0 °F 42% 29.99 in 10.0 mi SSW 19.6 mph 28.8 mph N/A   Overcast
10:53 AM 60.1 °F 37.0 °F 42% 29.98 in 10.0 mi SSW 25.3 mph 34.5 mph N/A   Mostly Cloudy
11:53 AM 63.0 °F 39.9 °F 43% 29.96 in 10.0 mi SSW 24.2 mph 34.5 mph N/A   Mostly Cloudy
12:53 PM 62.1 °F 39.9 °F 44% 29.96 in 10.0 mi SW 21.9 mph 36.8 mph N/A   Overcast
1:53 PM 62.1 °F 42.1 °F 48% 29.93 in 10.0 mi SSW 19.6 mph 26.5 mph N/A   Overcast
2:53 PM 63.0 °F 45.0 °F 52% 29.90 in 10.0 mi SSW 21.9 mph 31.1 mph N/A   Overcast
3:53 PM 64.0 °F 46.0 °F 52% 29.87 in 10.0 mi SSW 19.6 mph 29.9 mph N/A   Overcast
4:53 PM 64.0 °F 45.0 °F 50% 29.87 in 10.0 mi SSW 17.3 mph 28.8 mph N/A   Overcast
5:53 PM 64.0 °F 44.1 °F 48% 29.87 in 10.0 mi SSW 24.2 mph 36.8 mph N/A   Overcast
6:53 PM 64.0 °F 44.1 °F 48% 29.87 in 10.0 mi SSW 19.6 mph 28.8 mph N/A   Overcast
7:53 PM 64.0 °F 46.0 °F 52% 29.86 in 10.0 mi SSW 25.3 mph 32.2 mph N/A   Overcast
8:53 PM 63.0 °F 46.0 °F 54% 29.86 in 10.0 mi SSW 28.8 mph 40.3 mph N/A   Overcast
9:53 PM 63.0 °F 46.9 °F 56% 29.85 in 10.0 mi SSW 19.6 mph 33.4 mph N/A   Overcast
10:53 PM 63.0 °F 46.9 °F 56% 29.81 in 10.0 mi SSW 25.3 mph 34.5 mph N/A   Overcast
11:53 PM 63.0 °F 46.9 °F 56% 29.78 in 10.0 mi SSW 19.6 mph 27.6 mph N/A   Mostly Cloudy